Wind_Speed
92 91 90 90 90 90 90 90 90 90 90 90 90 90 91 91 91 92 92 92 93 93 93 93 93 93 93 94 94 94 95 95 95 95 96 95 96 96 96 96 96 96 96 95 95 96 96 96 96 97 97 96
87 86 86 86 87 87 87 88 88 88 88 88 88 88 88 89 89 90 90 90 90 90 90 90 90 90 90 91 91 92 92 93 93 94 94 94 95 95 95 96 96 97 97 97 97 97 98 98 98 99 99 99
84 84 84 85 85 86 86 86 86 87 87 87 87 87 87 87 87 87 88 88 87 87 87 87 87 87 87 88 88 89 90 90 91 91 92 93 93 94 94 95 95 96 97 97 98 99 99 100 100 101 101 101
82 82 83 84 84 84 85 85 85 86 86 86 86 85 85 85 85 85 85 85 85 84 84 84 85 85 85 85 86 86 87 87 88 89 89 90 91 92 93 94 94 94 95 96 98 99 100 101 102 102 103 103
80 81 82 82 83 84 84 84 84 84 84 84 84 83 83 83 83 83 83 83 83 83 82 83 83 83 83 83 83 84 84 85 85 86 87 88 89 90 91 92 93 93 94 95 97 98 99 101 102 103 104 105
79 79 80 81 82 82 82 82 82 82 82 81 81 80 80 80 80 80 81 81 81 81 80 80 80 80 81 81 81 81 82 82 83 83 84 85 86 87 88 90 91 92 92 94 95 97 99 100 102 103 104 106
78 79 79 79 79 80 80 80 80 79 79 78 78 78 78 78 78 78 78 78 78 78 77 77 77 77 78 78 79 79 79 80 80 81 82 83 84 85 86 87 89 90 91 92 93 95 98 100 101 102 104 105
78 78 78 78 78 78 78 78 78 78 77 76 76 75 75 76 75 75 74 74 74 73 73 72 73 73 74 75 76 77 77 78 78 78 79 80 81 82 84 85 87 88 90 91 92 94 95 97 99 101 102 104
77 77 76 77 77 77 77 77 77 76 75 75 74 73 73 73 72 71 69 68 66 66 65 65 66 67 68 70 71 73 74 74 75 75 76 77 78 79 80 82 84 86 88 89 90 91 93 95 96 98 100 102
75 75 75 75 75 75 75 75 75 74 73 71 71 70 70 69 67 64 61 59 58 58 57 57 57 58 59 61 63 65 67 68 69 70 71 72 73 75 76 78 80 82 83 85 87 89 90 92 94 96 98 100
74 74 74 73 73 73 72 72 70 68 66 64 64 63 63 62 59 57 55 54 54 54 53 52 51 51 51 52 54 56 58 60 61 63 65 66 68 70 72 74 75 77 79 81 83 85 87 89 92 94 96 98
73 73 72 71 70 70 68 65 62 59 56 55 54 54 54 54 54 53 53 53 53 53 52 51 50 49 49 49 49 50 51 52 54 55 57 59 60 63 65 68 70 72 74 76 78 80 83 85 88 90 93 95
73 72 70 69 68 65 62 58 54 52 49 47 47 48 49 51 52 53 53 53 52 52 52 51 51 50 49 49 49 50 50 51 52 52 53 54 55 56 59 61 63 66 68 71 73 76 78 80 83 85 88 91
73 70 68 66 64 60 56 53 51 49 47 47 47 48 50 51 52 52 53 52 52 52 52 51 51 51 50 50 50 51 52 52 53 53 54 54 55 55 57 58 59 61 63 66 68 70 73 76 79 81 84 87
72 68 66 64 59 55 53 52 51 50 50 49 50 50 51 52 52 53 53 52 52 52 52 52 52 51 51 51 51 52 53 53 54 55 56 56 57 58 58 60 60 61 62 64 66 67 69 72 74 77 80 83
70 67 64 60 55 53 53 53 52 52 52 52 51 51 52 52 52 53 53 53 53 52 52 52 52 52 52 52 52 52 53 54 55 56 56 57 58 59 60 61 62 63 64 66 67 68 69 71 72 74 76 79
68 65 60 56 53 53 54 54 54 54 54 53 53 52 52 53 53 53 53 53 53 53 53 53 53 53 53 53 53 54 54 55 56 56 57 58 58 59 60 62 63 64 65 67 68 69 70 71 73 74 76 77
65 60 56 54 54 55 55 55 55 55 55 54 54 53 53 54 54 54 54 54 54 54 54 54 54 54 54 54 55 56 57 57 58 59 59 60 61 61 62 63 64 65 66 67 68 70 71 72 74 75 76 78
61 56 54 55 56 56 56 56 56 56 56 56 55 55 55 55 56 56 56 56 56 56 56 55 56 56 56 57 57 59 60 61 62 63 63 64 64 65 66 66 67 68 69 70 71 71 72 74 75 76 77 79
57 55 55 56 57 57 57 57 57 58 57 57 57 58 58 58 58 58 58 58 57 57 58 58 59 59 59 60 60 62 64 65 67 68 68 69 69 69 70 71 71 72 72 73 73 75 75 77 78 79 80 81
55 55 56 58 58 58 58 58 59 59 59 59 60 60 60 60 60 60 60 60 60 60 61 61 62 63 63 63 64 65 67 68 70 71 73 75 75 75 75 76 76 76 76 76 76 78 79 80 80 81 82 83
55 56 58 59 60 60 59 60 60 60 61 61 62 63 63 63 63 63 63 63 63 64 65 65 66 66 67 67 68 69 70 72 73 74 75 78 80 80 80 81 81 81 81 80 80 81 82 83 84 84 85 86
57 58 59 60 60 60 61 61 61 62 63 64 64 65 65 66 66 66 67 67 68 68 69 69 70 70 71 71 72 73 74 75 76 77 78 80 82 84 85 85 86 86 86 85 84 85 86 87 87 88 89 90
59 59 59 60 61 61 62 63 63 65 65 66 67 68 68 69 70 70 71 71 72 72 73 73 74 74 75 76 76 77 78 79 80 81 82 82 84 85 87 88 89 89 89 88 88 89 89 90 91 92 94 94
60 60 60 61 62 63 64 65 66 67 68 68 69 71 72 72 73 74 74 75 76 77 77 77 78 79 80 81 81 82 83 84 85 85 85 86 86 87 88 89 91 91 91 90 90 91 92 93 95 96 97 98
61 61 61 62 63 65 66 68 69 70 71 72 72 73 74 75 76 77 78 79 80 81 81 82 83 84 85 85 86 86 87 88 89 89 89 89 88 88 89 90 92 93 93 92 93 94 94 96 98 100 100 101
62 63 64 64 66 67 68 70 72 73 74 75 75 76 77 78 79 80 82 83 84 85 85 86 87 88 89 90 90 90 91 92 92 92 92 92 91 90 90 91 93 95 95 95 96 96 96 98 101 103 104 106
65 66 67 68 69 70 71 73 75 76 77 78 78 79 80 81 82 84 85 87 88 88 89 90 91 92 93 94 94 95 95 95 95 96 95 94 93 92 92 92 94 96 97 98 99 99 99 101 103 105 108 111
68 70 70 71 72 73 74 76 78 79 80 81 82 83 84 85 87 88 89 90 91 92 93 93 95 96 97 98 99 99 98 98 99 98 98 97 96 95 95 95 96 98 100 102 103 103 104 105 107 108 111 115
70 72 74 74 75 77 78 79 81 83 84 84 86 87 88 90 91 92 92 93 95 96 96 97 98 100 101 102 103 102 102 102 101 101 100 99 98 98 98 99 99 101 104 105 106 108 109 110 112 113 116 118
73 75 77 78 79 80 82 82 84 87 88 89 90 91 92 94 95 96 96 97 98 99 100 101 102 103 104 105 106 106 105 105 104 103 102 101 101 101 102 103 103 105 107 109 111 113 114 115 117 119 121 123
Wind_Direction
278 278 278 277 277 276 275 275 274 273 272 271 270 269 268 267 266 266 265 264 264 263 263 263 262 262 262 262 261 261 261 260 260 259 258 258 257 256 256 256 255 255 254 252 251 250 249 248 248 247 246 244
280 279 279 279 278 277 276 275 274 273 272 271 270 269 268 267 267 266 265 265 264 264 263 263 262 262 261 261 260 260 259 259 258 258 257 257 256 255 254 254 254 253 253 253 252 251 249 248 247 247 246 245
281 281 280 279 278 277 276 275 274 273 272 272 271 270 270 269 269 268 268 267 267 266 265 265 264 263 262 261 260 260 259 258 258 257 256 255 255 254 253 252 252 251 251 251 251 251 250 249 248 247 246 245
281 280 279 278 277 275 275 274 273 273 273 272 272 272 272 271 271 271 270 270 269 268 267 266 265 264 263 261 261 260 259 258 257 257 256 255 254 253 252 251 250 250 249 249 249 249 249 249 249 248 246 245
281 279 278 277 276 275 274 274 274 274 274 274 274 273 273 273 272 272 271 271 270 269 268 267 266 265 264 262 261 260 259 258 257 257 256 255 253 252 252 251 249 248 247 247 247 247 247 247 248 248 247 246
281 280 278 277 277 276 276 276 276 275 275 275 275 274 273 273 272 272 271 271 270 269 268 267 267 265 264 263 262 260 259 258 257 256 255 254 253 252 251 250 249 248 246 245 245 245 245 245 245 246 246 246
283 281 281 280 280 279 279 278 277 277 276 275 274 273 272 272 271 271 271 271 271 270 269 268 267 266 264 263 262 260 259 258 257 256 255 254 253 252 251 250 249 248 247 245 244 243 243 243 243 244 244 245
285 284 284 283 282 282 281 280 279 278 277 275 274 273 272 271 271 271 271 272 272 271 270 269 267 265 264 262 261 260 259 258 257 256 255 255 254 253 252 251 250 249 247 246 244 243 242 242 242 242 242 243
285 285 284 283 283 283 282 281 280 279 278 276 274 272 271 271 271 272 272 272 271 271 270 269 267 265 263 262 261 260 259 259 258 257 256 255 255 254 253 252 251 250 248 247 246 245 243 242 241 241 240 241
284 284 283 283 283 283 282 282 281 280 278 276 273 271 270 270 271 271 270 270 270 270 269 269 267 265 264 262 260 260 259 258 258 257 256 256 255 254 253 253 252 251 250 248 247 246 245 243 242 241 240 239
283 283 283 283 283 283 283 283 282 281 278 275 272 270 269 269 268 267 267 267 268 268 268 268 267 266 264 263 261 260 259 258 257 256 256 255 254 253 253 252 252 251 250 249 248 247 246 245 243 242 241 240
283 283 283 283 283 283 282 281 281 280 278 275 272 269 267 266 266 265 265 266 267 268 268 267 267 265 264 263 262 261 260 259 258 257 256 255 254 253 252 252 252 251 251 250 249 248 246 245 244 243 242 241
283 284 284 283 283 281 279 277 277 277 276 274 271 268 267 266 266 266 267 267 268 268 268 267 266 265 264 263 263 262 261 260 260 259 257 256 255 254 253 252 252 251 251 250 249 248 247 246 245 244 243 242
284 284 283 282 280 277 274 274 274 274 273 272 270 269 268 268 268 268 268 269 269 268 268 268 267 266 265 264 263 262 262 261 260 260 259 258 257 256 255 254 253 253 252 251 250 249 248 247 246 245 244 243
285 284 283 280 276 272 271 272 272 272 272 271 270 269 269 269 270 270 270 269 269 269 268 268 267 267 266 265 263 263 262 261 261 260 259 258 258 257 256 255 254 254 253 253 252 251 250 249 248 247 245 244
285 284 281 277 272 269 270 271 271 271 270 270 270 269 269 269 269 269 269 269 269 269 269 269 269 268 268 267 266 265 264 263 262 262 261 260 259 258 257 256 255 254 253 253 253 252 251 251 250 249 248 247
284 282 278 272 268 268 269 269 270 270 270 269 269 268 268 268 268 268 268 268 269 269 269 270 270 270 270 270 269 268 267 266 265 264 263 262 261 260 259 258 257 256 255 254 254 253 252 252 252 251 251 250
282 278 271 267 266 267 267 268 268 269 268 268 267 266 266 266 266 267 267 268 268 269 269 270 271 272 272 272 272 272 271 269 268 267 266 264 263 262 261 260 259 258 256 256 255 254 254 253 252 252 251 251
277 271 266 264 265 266 267 267 268 267 267 266 266 265 265 265 266 266 267 268 269 269 270 270 271 271 272 272 273 273 273 273 272 270 269 267 265 264 263 262 261 259 258 257 256 255 254 253 253 252 252 251
271 266 264 265 266 266 266 267 267 267 266 266 266 266 266 266 267 267 268 269 269 270 270 271 271 271 272 273 273 274 275 275 274 273 272 271 269 267 266 264 263 262 260 259 258 257 256 255 254 253 253 252
265 263 264 265 266 266 267 267 267 268 267 267 267 267 268 268 268 269 269 270 270 271 271 271 271 272 272 273 273 274 274 274 274 274 274 273 272 270 268 267 265 264 263 261 261 260 259 258 257 256 255 255
261 262 263 265 266 267 267 268 268 268 268 268 268 268 268 269 269 270 270 271 271 271 271 271 271 272 272 272 272 272 273 273 273 273 273 273 272 271 270 268 267 266 264 263 262 261 261 260 259 258 258 257
261 263 265 266 267 268 268 267 268 268 268 268 269 269 269 270 270 270 271 271 271 271 271 271 271 271 271 272 272 272 272 272 272 272 272 272 271 271 270 268 267 266 265 264 263 262 261 261 260 259 259 258
263 266 267 268 268 268 268 268 268 269 269 269 270 270 270 271 271 271 272 272 272 272 272 272 272 272 272 272 272 272 272 272 272 272 272 272 271 270 269 267 266 264 264 263 262 262 261 261 261 260 259 259
265 267 268 269 269 269 268 269 269 269 270 270 271 271 271 271 272 272 272 273 273 273 273 273 272 272 272 273 273 272 272 272 272 272 272 272 271 270 269 267 266 264 263 262 262 261 262 262 261 261 260 260
267 268 269 269 269 269 269 269 270 270 270 270 270 271 271 271 271 271 272 272 272 272 272 272 271 272 272 272 272 272 272 272 272 272 272 271 271 269 268 267 266 265 264 263 262 262 262 262 262 262 262 261
268 270 271 270 269 269 269 269 270 270 271 271 271 271 271 271 271 272 272 272 272 272 272 272 272 272 273 273 273 273 273 273 273 273 272 271 270 268 267 265 265 265 264 264 263 263 263 263 263 264 263 262
269 270 271 271 270 269 269 269 270 270 270 271 271 271 271 272 272 272 272 273 273 272 272 273 273 274 274 274 275 275 275 275 275 274 273 272 270 268 267 266 265 265 265 264 264 264 264 264 264 264 264 264
269 270 271 271 270 270 270 270 270 270 271 271 271 271 271 272 272 273 273 273 273 273 274 274 274 275 275 276 276 276 276 276 276 275 274 273 271 270 268 267 267 267 267 266 266 265 265 264 264 264 264 264
270 271 271 271 271 271 271 271 272 272 272 272 272 272 272 273 273 273 273 273 274 274 274 274 275 276 276 277 277 277 277 277 276 275 274 273 272 271 269 268 268 268 268 268 267 267 266 265 265 264 263 263
272 272 272 272 272 272 272 272 272 273 273 273 273 273 274 274 274 274 274 274 274 275 275 276 276 277 277 278 278 278 278 277 276 275 274 273 272 271 270 270 269 269 269 268 268 267 266 265 265 264 263 262
Height
10665 10663 10661 10658 10655 10653 10651 10649 10647 10646 10644 10643 10642 10641 10641 10640 10639 10638 10637 10637 10638 10638 10639 10640 10640 10641 10641 10642 10642 10643 10645 10646 10648 10650 10652 10655 10658 10660 10662 10665 10667 10670 10672 10675 10677 10680 10683 10684 10687 10689 10691 10696
10655 10652 10649 10647 10643 10641 10639 10636 10634 10632 10631 10630 10629 10628 10627 10627 10626 10626 10626 10626 10626 10627 10628 10629 10630 10630 10631 10631 10631 10632 10633 10635 10636 10638 10640 10642 10644 10647 10650 10653 10655 10658 10660 10662 10665 10667 10670 10672 10674 10677 10679 10682
10644 10641 10638 10635 10632 10629 10626 10624 10622 10620 10619 10618 10617 10616 10616 10615 10615 10615 10614 10615 10615 10616 10616 10617 10618 10619 10619 10620 10620 10620 10621 10622 10624 10625 10627 10629 10631 10634 10636 10640 10643 10646 10648 10651 10653 10655 10657 10659 10662 10664 10667 10669
10633 10630 10627 10623 10620 10617 10615 10613 10612 10610 10609 10607 10607 10606 10606 10605 10605 10604 10603 10603 10604 10604 10604 10604 10605 10606 10607 10607 10608 10608 10609 10610 10611 10613 10614 10617 10619 10620 10623 10626 10630 10633 10636 10638 10641 10643 10645 10647 10649 10651 10654 10657
10622 10618 10615 10612 10609 10607 10605 10604 10602 10601 10599 10598 10598 10597 10596 10595 10595 10594 10593 10592 10592 10592 10593 10593 10592 10593 10594 10595 10596 10596 10597 10598 10599 10600 10602 10604 10606 10608 10609 10612 10615 10619 10622 10625 10628 10630 10633 10635 10637 10639 10641 10644
10610 10607 10604 10601 10599 10597 10596 10594 10593 10592 10590 10589 10588 10588 10587 10585 10584 10583 10583 10582 10581 10581 10582 10582 10581 10581 10582 10582 10583 10584 10585 10586 10587 10588 10590 10591 10593 10595 10597 10599 10601 10605 10608 10612 10614 10616 10619 10622 10624 10627 10629 10632
10598 10595 10593 10591 10589 10587 10585 10584 10582 10581 10580 10579 10578 10577 10576 10575 10574 10573 10573 10572 10571 10570 10571 10571 10571 10570 10570 10570 10571 10572 10573 10574 10575 10577 10578 10579 10581 10583 10585 10586 10588 10591 10594 10597 10600 10603 10606 10609 10612 10615 10618 10620
10588 10586 10583 10581 10579 10577 10575 10573 10571 10570 10568 10567 10566 10566 10565 10564 10564 10563 10563 10562 10561 10560 10560 10560 10560 10560 10559 10559 10560 10560 10561 10562 10564 10565 10567 10568 10570 10571 10573 10575 10577 10579 10581 10584 10587 10590 10593 10596 10599 10603 10606 10609
10580 10577 10574 10571 10569 10567 10564 10562 10560 10558 10557 10556 10555 10555 10554 10554 10553 10554 10553 10553 10551 10550 10550 10550 10550 10549 10549 10549 10549 10549 10550 10552 10553 10555 10556 10558 10559 10561 10562 10563 10565 10567 10570 10573 10576 10579 10581 10584 10587 10590 10593 10597
10572 10569 10566 10563 10561 10558 10555 10552 10550 10548 10546 10545 10545 10544 10544 10544 10544 10545 10544 10544 10543 10542 10541 10541 10541 10540 10540 10540 10540 10540 10541 10542 10543 10544 10546 10547 10549 10550 10551 10552 10554 10556 10559 10562 10564 10567 10570 10572 10575 10577 10580 10583
10563 10560 10557 10555 10552 10549 10546 10543 10541 10539 10536 10535 10534 10534 10534 10534 10535 10536 10536 10536 10535 10534 10534 10533 10533 10533 10532 10532 10532 10532 10532 10533 10534 10535 10536 10537 10538 10540 10541 10542 10543 10545 10547 10550 10553 10555 10558 10560 10563 10566 10568 10571
10554 10551 10549 10546 10543 10540 10538 10535 10533 10530 10528 10527 10526 10526 10526 10526 10527 10528 10528 10528 10528 10527 10526 10526 10526 10526 10526 10526 10525 10525 10525 10525 10526 10527 10527 10528 10529 10530 10531 10532 10533 10534 10536 10538 10541 10544 10546 10549 10552 10554 10557 10559
10544 10542 10540 10537 10535 10532 10530 10528 10526 10524 10522 10521 10520 10519 10519 10519 10519 10520 10520 10520 10520 10519 10519 10519 10519 10519 10519 10519 10519 10518 10518 10518 10519 10519 10520 10521 10522 10523 10523 10523 10524 10525 10526 10528 10530 10532 10534 10537 10540 10542 10545 10548
10534 10533 10531 10529 10526 10524 10522 10521 10519 10518 10516 10515 10514 10513 10513 10512 10512 10512 10512 10513 10513 10512 10511 10511 10511 10512 10512 10512 10513 10512 10512 10512 10512 10512 10513 10514 10515 10516 10516 10516 10517 10518 10518 10518 10520 10522 10523 10525 10528 10530 10532 10535
10525 10524 10522 10520 10518 10517 10515 10514 10512 10511 10510 10509 10508 10507 10506 10506 10505 10505 10505 10505 10505 10504 10504 10504 10504 10504 10505 10505 10506 10505 10505 10505 10506 10506 10506 10507 10508 10508 10509 10509 10510 10511 10510 10510 10511 10513 10513 10515 10517 10519 10521 10523
10516 10515 10513 10512 10510 10509 10508 10507 10505 10504 10503 10502 10502 10501 10500 10499 10498 10498 10497 10497 10497 10497 10496 10496 10496 10496 10497 10497 10498 10498 10498 10498 10498 10499 10499 10500 10501 10501 10501 10501 10502 10503 10503 10503 10503 10505 10505 10506 10507 10508 10510 10512
10508 10506 10505 10503 10502 10501 10500 10499 10497 10496 10496 10495 10495 10494 10493 10492 10492 10491 10490 10490 10490 10489 10489 10488 10488 10488 10488 10489 10489 10489 10489 10489 10489 10490 10491 10491 10493 10493 10493 10493 10493 10495 10495 10495 10496 10496 10497 10498 10498 10498 10500 10501
10499 10498 10497 10495 10494 10493 10492 10491 10490 10489 10488 10488 10487 10487 10486 10485 10485 10484 10483 10483 10482 10482 10481 10481 10480 10480 10480 10481 10480 10480 10480 10480 10480 10480 10481 10481 10483 10483 10484 10484 10484 10485 10486 10486 10487 10487 10488 10488 10488 10489 10490 10490
10491 10489 10488 10487 10486 10484 10483 10483 10482 10481 10481 10480 10480 10479 10478 10478 10477 10476 10476 10475 10475 10474 10473 10473 10472 10472 10472 10472 10472 10471 10470 10470 10470 10470 10471 10471 10472 10473 10473 10473 10473 10474 10475 10475 10476 10477 10477 10478 10478 10479 10479 10479
10483 10481 10480 10479 10477 10476 10475 10475 10474 10473 10473 10472 10472 10471 10470 10470 10469 10468 10467 10467 10466 10466 10465 10465 10464 10463 10464 10464 10464 10463 10461 10461 10460 10460 10460 10460 10461 10462 10462 10462 10462 10462 10463 10465 10465 10465 10466 10466 10467 10468 10468 10469
10475 10474 10472 10470 10469 10468 10467 10467 10466 10465 10465 10464 10463 10463 10462 10461 10460 10459 10458 10458 10458 10457 10456 10455 10455 10454 10455 10455 10455 10454 10453 10452 10451 10451 10450 10449 10448 10450 10451 10450 10450 10450 10451 10453 10454 10453 10453 10454 10455 10456 10457 10458
10468 10466 10464 10463 10461 10460 10459 10459 10458 10457 10457 10456 10455 10454 10453 10452 10451 10450 10449 10448 10448 10447 10446 10446 10445 10445 10445 10445 10445 10444 10443 10442 10442 10441 10441 10440 10437 10438 10440 10439 10438 10437 10438 10441 10442 10441 10440 10440 10443 10444 10444 10445
10459 10458 10457 10455 10454 10453 10452 10451 10450 10449 10448 10447 10446 10445 10444 10443 10442 10441 10439 10438 10438 10437 10436 10435 10435 10434 10433 10434 10434 10433 10432 10431 10431 10430 10430 10430 10428 10427 10427 10427 10425 10424 10425 10427 10429 10428 10427 10427 10429 10430 10430 10431
10452 10450 10449 10448 10447 10446 10444 10443 10442 10440 10439 10438 10437 10435 10434 10433 10431 10430 10429 10428 10427 10426 10425 10424 10423 10422 10421 10421 10422 10421 10420 10419 10418 10418 10418 10418 10418 10416 10414 10413 10412 10411 10412 10414 10415 10414 10414 10414 10414 10414 10414 10416
10444 10443 10442 10440 10439 10438 10436 10434 10433 10432 10430 10429 10428 10426 10424 10423 10421 10420 10418 10416 10416 10414 10413 10412 10411 10410 10409 10409 10409 10409 10407 10406 10405 10405 10405 10405 10404 10403 10402 10400 10397 10396 10398 10401 10401 10400 10400 10400 10398 10397 10399 10401
10435 10434 10433 10432 10430 10429 10427 10425 10423 10422 10420 10419 10418 10416 10414 10413 10411 10409 10407 10405 10404 10403 10402 10400 10399 10398 10397 10396 10396 10395 10394 10393 10392 10391 10390 10390 10390 10389 10389 10388 10382 10380 10383 10386 10386 10386 10387 10386 10381 10381 10384 10384
10427 10425 10424 10423 10422 10420 10418 10415 10413 10412 10410 10408 10407 10405 10403 10402 10400 10398 10396 10393 10392 10391 10389 10388 10386 10384 10383 10381 10381 10381 10380 10378 10377 10376 10374 10374 10375 10375 10374 10373 10369 10366 10367 10369 10369 10370 10373 10372 10367 10366 10365 10364
10418 10416 10415 10413 10412 10410 10408 10406 10402 10400 10399 10397 10396 10394 10391 10390 10388 10386 10384 10381 10379 10377 10376 10374 10372 10370 10368 10366 10364 10364 10364 10362 10360 10359 10358 10357 10358 10358 10358 10357 10354 10351 10350 10350 10351 10354 10357 10356 10353 10353 10348 10343
10408 10406 10404 10403 10401 10399 10397 10395 10392 10389 10387 10385 10384 10382 10380 10378 10376 10374 10371 10368 10365 10363 10362 10360 10357 10355 10353 10350 10348 10347 10347 10346 10343 10342 10341 10340 10340 10339 10340 10340 10338 10335 10332 10331 10333 10335 10337 10336 10335 10337 10333 10327
10397 10395 10393 10391 10390 10387 10385 10383 10380 10376 10375 10374 10371 10369 10367 10365 10362 10360 10359 10356 10352 10350 10348 10346 10343 10340 10338 10335 10332 10331 10330 10329 10326 10325 10324 10322 10322 10321 10320 10321 10322 10319 10313 10312 10314 10313 10314 10315 10315 10316 10313 10310
10386 10383 10381 10379 10377 10375 10373 10371 10369 10363 10361 10360 10358 10356 10353 10350 10348 10346 10344 10342 10338 10335 10333 10331 10328 10325 10322 10319 10315 10313 10313 10311 10308 10307 10306 10304 10304 10303 10301 10301 10303 10301 10295 10293 10294 10290 10291 10293 10292 10291 10290 10289